www.pogodaiklimat.ru

Погода и климат >> Архив погоды >> Россия >> Магаданская область >> Коркодон


ПОГОДА в Коркодоне

  • Прогноз погоды в Коркодоне
  • Монитор погоды в Коркодоне
  • Климат города

АРХИВ ПОГОДЫ в Коркодоне

Время (UTC), дата Ветер
(напр.,м/с)
 
Видим.   Явления Облачность Т
(С)
Тd
(С)
f
(%)
Тe
(С)
Тes
(С)
Комфортность P
(гПа)
Po
(гПа)
Тmin
(С)
Tmax
(С)
R
(мм)
R24
(мм)
S
(см)
21 12.10 З 4
{11}
4000 м слабый ливневой снег 10/10 1000 м
[Cb cap]
-10.2 -13.0 80 -17 -17 1007.8 994.9 -12.0 1 <0.5
00 13.10 З 6-10
{11}
20 км слабый ливневой снег {метель} 10/10 1000 м
[Cb cap]
-8.8 -11.7 79 -17 -17 1005.4 992.6
03 13.10 З 5-11
{12}
4000 м слабый ливневой снег {метель} 10/10 1000 м
[Cb cap]
-8.0 -11.6 75 -15 -15 1004.1 991.4
06 13.10 З 4-12
{14}
4000 м слабый ливневой снег {метель} 10/10 1000 м
[Cb cap]
-8.1 -11.3 78 -15 -15 1003.9 991.2
09 13.10 З 5-12
{13}
4000 м слабый ливневой снег {метель} 10/10 1000 м
[Cb cap]
-8.2 -11.9 75 -16 -16 1003.7 990.9 -7.9 1
12 13.10 З 5-10
{13}
4000 м слабый ливневой снег {метель} 10/10 1000 м
[Cb cap]
-8.4 -12.1 75 -16 -16 1003.4 990.6
15 13.10 З 5
{11}
4000 м слабый ливневой снег {метель} 10/10 1000 м
[Cb cap]
-7.7 -11.2 76 -15 -15 1003.3 990.6
18 13.10 З 4
{11}
4000 м слабый ливневой снег {метель} 10/10 1000 м
[Cb cap]
-6.9 -9.8 80 -14 -14 1003.5 990.8
21 13.10 З 4 4000 м 10/10 1000 м
[Cb cap]
-6.6 -9.8 78 -13 -13 1003.4 990.7 -8.5 0.7 3
00 14.10 З 5-10
{11}
4000 м слабый ливневой снег {метель} 10/10 1000 м
[Cb cap]
-5.6 -9.8 72 -13 -13 1003.7 991.1
03 14.10 З 4
{12}
4000 м слабый ливневой снег {метель} 10/10 1000 м
[Cb cap]
-5.2 -9.7 71 -11 -11 1003.6 991.0
06 14.10 З 6-10
{13}
4000 м слабый ливневой снег {метель} 10/10 1000 м
[Cb cap]
-5.4 -9.6 72 -13 -13 1003.8 991.2
09 14.10 З 5-10
{12}
4000 м слабый ливневой снег {метель} 10/10 1000 м
[Cb cap]
-5.6 -9.8 72 -13 -13 1004.7 992.1 -5.1 0.6
12 14.10 З 5
{11}
4000 м слабый ливневой снег {метель} 10/10 1000 м
[Cb cap]
-6.2 -8.1 86 -14 -14 1005.4 992.8
15 14.10 З 4
{11}
500 м ливневой снег {метель} 10/10 1000 м
[Cb cap]
-5.7 -8.7 79 -12 -12 1006.3 993.7
18 14.10 З 4
{10}
500 м ливневой снег {метель} 10/10 1000 м
[Cb cap]
-5.8 -9.7 74 -12 -12 1007.2 994.6
21 14.10 З 2 4000 м слабый ливневой снег 10/10 1000 м
[Cb cap]
-5.8 -9.7 74 -10 -10 1008.3 995.7 -6.4 3 9
00 15.10 З 4
{11}
20 км слабый ливневой снег 10/10 1000 м
[Cb cap]
-4.6 -9.4 69 -11 -11 1008.9 996.3
03 15.10 З 4
{10}
50 км в посл. час ливневой снег 10/10 1000 м
[Cb cap]
-4.2 -9.2 68 -10 -10 1008.8 996.3
06 15.10 З 3 20 км слабый ливневой снег 10/10 1000 м
[Cb cap]
-4.7 -8.2 76 -10 -10 1009.2 996.6
09 15.10 З 3 4000 м слабый ливневой снег 10/10 1000 м
[Cb cap]
-5.2 -6.9 88 -11 -11 1008.9 996.3 -4.2 0.6
12 15.10 З 3 4000 м слабый ливневой снег 10/10 1000 м
[Cb cap]
-5.4 -7.2 87 -11 -11 1008.2 995.6
15 15.10 З 2 20 км слабый ливневой снег 10/10 1000 м
[Cb cap]
-5.0 -6.3 91 -9 -9 1007.5 994.9
18 15.10 З 2 20 км слабый ливневой снег 10/10 1000 м
[Cb cap]
-5.4 -6.4 93 -10 -10 1006.9 994.3
21 15.10 З 2 4000 м слабый ливневой снег 10/10 1000 м
[Cb cap]
-5.9 -6.7 94 -10 -10 1006.8 994.2 -5.9 3 10
00 16.10 З 2 4000 м слабый ливневой снег 10/10 1000 м
[Cb cap]
-4.8 -5.8 93 -9 -9 1007.1 994.5
03 16.10 З 1 20 км слабый ливневой снег 10/10 1000 м
[Cb cap]
-2.7 -4.7 86 -5 -5 1007.2 994.7
06 16.10 штиль 0 50 км в посл. час ливневой снег 10/10 1000 м
[Cb cap]
-2.8 -4.8 86 -4 -4 1008.4 995.9
09 16.10 ЮВ 1 50 км в посл. час ливневой снег 10/10 1000 м
[Cb cap]
-3.7 -4.8 92 -6 -6 1010.1 997.6 -2.3 0.7
12 16.10 СВ 2 50 км {ливн. осадки} 10/10 1000 м
[Cb cap]
-3.3 -6.1 81 -7 -7 1011.8 999.3
15 16.10 штиль 0 50 км 10/10 1000 м
[Cb cap]
-4.2 -5.8 89 -5 -5 1012.6 1000.0
18 16.10 штиль 0 50 км 10/10 1000 м
[Cb cap]
-4.9 -5.5 96 -6 -6 1013.8 1001.1
21 16.10 штиль 0 50 км 10/10 1000 м
[Cb cap]
-4.9 -5.5 96 -6 -6 1014.9 1002.2 -4.9 10
00 17.10 СЗ 1 50 км 10/10 1000 м
[Cb cap]
-2.8 -4.8 86 -5 -5 1015.8 1003.2
03 17.10 З 1 20 км слабый ливневой снег 10/10 1000 м
[Cb cap]
-0.3 -2.7 84 -2 -2 1015.9 1003.5
06 17.10 С 4 20 км слабый ливневой снег 10/10 1000 м
[Cb cap]
-1.1 -3.7 82 -7 -7 1017.5 1004.9
09 17.10 С 4 20 км слабый ливневой снег 10/10 1000 м
[Cb cap]
-3.0 -7.2 73 -9 -9 1020.1 1007.4 -0.1 0.2
12 17.10 штиль 0 20 км слабый ливневой снег 10/10 1000 м
[Cb cap]
-3.7 -7.7 74 -5 -5 1021.1 1008.4
15 17.10 СЗ 1 20 км слабый ливневой снег 9/9 1000 м
[Cb cap]
-3.8 -6.7 80 -6 -6 1021.5 1008.8
18 17.10 Ю 1 20 км слабый ливневой снег 10/10 1000 м
[Cb cap]
-4.4 -7.9 77 -7 -7 1022.6 1009.8
21 17.10 СЗ 1 20 км слабый ливневой снег 10/10 1000 м
[Cb cap]
-5.0 -7.8 81 -7 -7 1023.8 1011.0 -5.4 0.3 10
00 18.10 З 3 20 км слабый ливневой снег 10/10 1000 м
[Cb cap]
-5.0 -7.1 85 -10 -10 1024.7 1011.9
03 18.10 З 3 20 км слабый ливневой снег 10/10 1000 м
[Cb cap]
-4.8 -6.5 88 -10 -10 1025.3 1012.5
06 18.10 З 2 20 км слабый ливневой снег 10/10 1000 м
[Cb cap]
-5.1 -6.5 90 -9 -9 1026.4 1013.6
09 18.10 З 2 20 км слабый ливневой снег 10/10 1000 м
[Cb cap]
-6.2 -7.7 89 -11 -11 1027.7 1014.8 -4.5 0.4
12 18.10 З 2 20 км слабый ливневой снег 10/10 1000 м
[Cb cap]
-7.0 -8.3 90 -11 -11 1028.7 1015.7
15 18.10 З 1 20 км слабый ливневой снег 10/10 1000 м
[Cb cap]
-7.6 -8.6 93 -10 -10 1029.2 1016.2
18 18.10 штиль 0 20 км слабый ливневой снег 10/10 1000 м
[Cb cap]
-8.1 -8.1 100 -9 -9 1029.4 1016.4
21 18.10 ЮЗ 1 20 км слабый ливневой снег 10/10 1000 м
[Cb cap]
-8.6 -9.3 95 -11 -11 1030.0 1016.9 -8.6 0.2 10
00 19.10 ЮЗ 2 50 км {ливн. осадки} 10/10 1000 м
[Cb cap]
-8.2 -9.6 90 -13 -13 1029.9 1016.9
03 19.10 ЮЗ 1 50 км 9/9 1000 м
[Cb cap]
-7.8 -10.0 84 -10 -10 1029.5 1016.5
06 19.10 ЮЗ 1 50 км 9/9 1000 м
[Cb cap]
-8.2 -10.5 83 -11 -11 1029.5 1016.5
09 19.10 З 1 50 км 6/6 1000 м
[Sc]
-12.1 -13.4 90 -14 -14 1030.1 1016.9 -7.7 0.0
12 19.10 З 1 50 км 4/4 1000 м
[Sc]
-17.3 -18.5 90 -20 -20 1031.0 1017.5
15 19.10 З 1 50 км 9/9 1000 м
[Sc]
-15.6 -16.9 90 -18 -18 1031.0 1017.6

 

Местоположение метеостанции Коркодон (Магаданская область, Россия): широта 64.75 долгота 153.90 высота над уровнем моря 99 м.

В архиве по умолчанию представлена погода в Коркодоне за последнюю неделю. Архивные данные за месяц целиком и за предыдущие месяцы, начиная с января 2011 года, Вы можете получить, выбрав интересующий диапазон дат из раскрывающегося списка и нажав кнопку "Ввод!".

Внимание! Время в таблицах - всемирное. Для получения местного времени необходимо прибавить поправку, которая в Коркодоне равна 11 ч.

Смотрите также архив погоды в соседних городах и на ближайших метеорологических станциях:

Погода в Балыгычане (Магаданская область, Россия) (94 км)
Погода в Зырянке (Якутия, Россия) (177 км)
Погода в Сеймчане (Магаданская область, Россия) (217 км)
Погода в Омсукчане (Магаданская область, Россия) (265 км)
Погода в Среднекане (Магаданская область, Россия) (268 км)
Погода в Совхозе Эльген (Магаданская область, Россия) (271 км)
Погода в Лабазной (Магаданская область, Россия) (276 км)
Погода в Среднеколымске (Якутия, Россия) (300 км)
Погода в Омолоне (Чукотка, Россия) (315 км)
Погода в Ягодной (Магаданская область, Россия) (327 км)

Пояснения к столбцам:

Ветер - указаны скорость ветра в м/с - средняя за 10 мин, порывы в срок и между сроками (в фигурных скобках) и направление, откуда дует ветер: С - северный, СВ - северо-восточный, В - восточный, ЮВ - юго-восточный, Ю - южный, ЮЗ - юго-западный, З - западный, СЗ - северо-западный.
Видимость - горизонтальная дальность видимости в метрах или километрах. При видимости от 1 до 10 км при отсутствии осадков обычно наблюдается дымка, при ухудшении видимости до 1 км и менее - туман. В сухую погоду видимость может ухудшаться дымом, пылью или мглою.
Явления - указаны атмосферные явления, наблюдавшиеся в срок или в последний час перед сроком; фигурными скобками обозначены явления, наблюдавшиеся между сроками (за 1-3 часа до срока); квадратными скобками обозначены град или гололедные отложения с указанием их диаметра в мм.
Облачность - указаны через наклонную черту общая и нижняя облачность в баллах и высота нижней границы облаков в метрах; квадратными скобками обозначены формы облаков: Ci - перистые, Cs - перисто-слоистые, Cc - перисто-кучевые, Ac - высококучевые, As - высокослоистые, Sc - слоисто-кучевые, Ns - слоисто-дождевые, Cu - кучевые, Cb - кучево-дождевые. Подробнее классификацию облаков см. в Атласе облаков (PDF).
T - Температура воздуха - температура, измеренная на высоте 2 м над землей.
Td - Температура точки росы - температура, при понижении до которой содержащийся в воздухе водяной пар достигнет насыщения.
f - Относительная влажность воздуха - влажноcть воздуха, измеренная на высоте 2 м над землей.
Te - Эффективная температура - температура, которую ощущает одетый по сезону человек в тени. Характеристика душности погоды. При расчете учитывается влияние влажности воздуха и скорости ветра на теплоощущения человека.
Tes - Эффективная температура на солнце - температура, которую ощущает человек, с поправкой на солнечный нагрев. Характеристика знойности погоды. Зависит от высоты солнца над горизонтом, облачности и скорости ветра. Ночью, в пасмурную погоду, а также при ветре 12 м/с и более поправка равна нулю.
P - Атмосферное давление - приведенное к уровню моря атмосферное давление.
Po - Атмосферное давление - измеренное на уровне метеостанции атмосферное давление.
Tmin - Минимальная температура - минимум температуры воздуха на высоте 2 м над землей.
Tmax - Максимальная температура - максимум температуры воздуха на высоте 2 м над землей.
R - Количество осадков - Количество выпавших осадков за период времени, мм. При наведении курсора мыши на число - период времени, за который выпало указанное количество осадков.
R24 - Количество осадков - Количество выпавших осадков за 24 часа, мм.
S - Снежный покров - Высота снежного покрова, см. При наведении курсора мыши на число - состояние снежного покрова и степень покрытия местности в баллах.